{"data":{"norad_id":60136,"intl_designator":"2024-120B","name":"STARLINK-32112","alt_names":[],"object_type":"PAYLOAD","status":"ACTIVE","operator":null,"country":"US","launch_date":"2024-06-27","launch_site_code":"AFETR","launch_vehicle":null,"mission":null,"orbit_class":"UNKNOWN","rcs_meters":null,"size_class":null,"mass_kg":null,"dimensions":null,"purposes":["comms"],"wikipedia_slug":null,"has_3d_model":false,"image_url":null,"decayed_at":null,"tle_current":{"epoch":"2026-09-21T20:09:16.579008Z","epoch_age_seconds":65814,"freshness":"FRESH","line1":"1 60136U 24120B   26264.83977522  .00001143  00000+0  44954-4 0  9996","line2":"2 60136  53.1592 125.5679 0001128  85.5970 274.5162 15.34411856126536","mean_motion":15.34411856,"eccentricity":0.0001128,"inclination_deg":53.1592,"raan_deg":125.5679,"arg_perigee_deg":85.597,"mean_anomaly_deg":274.5162,"bstar":4.4954e-5,"rev_number":12653,"period_min":93.847032944198,"perigee_km":461.89635909925,"apogee_km":463.43964470768,"semimajor_km":6840.8050019035,"source":"CELESTRAK","updated_at":"2026-09-22T09:00:49.176415Z"}}}